TJS-2

Last updated on Thu Aug 13 2026 00:03:01 GMT+0000 (Coordinated Universal Time)

1 41911U 17001A 26224.60699100 -.00000024 00000+0 00000+0 0 9997 2 41911 0.9739 84.5158 0001317 128.1946 33.3913 1.00272049 35285
UTC large
Height (km)
Speed (km/s)
/
Latitude / Longitude
Inclination (degrees)
Orbital Period (minutes)
Azimuth
Elevation
Range (km)
Doppler Factor

Next 0 passes for location: London (51.5072 / 0.1276)

No passes found over London.
TJS-2